Regional Weather Roundup
Issued by NWS

Home | Current Version | Previous Version | Text Only | Print | Product List | Glossary Off
Versions: 1 2 3 4 5 6 7 8 9 10 11 12 13 14 15 16 17 18 19 20 21 22 23 24 25 26 27 28 29 30 31 32 33 34 35 36 37 38 39 40 41 42 43 44 45 46 47 48 49 50

000
ASUS43 KLOT 242321
RWRIL

ILLINOIS REGIONAL WEATHER ROUNDUP
NATIONAL WEATHER SERVICE CHICAGO/ROMEOVILLE IL
600 PM CDT FRI APR 24 2015

NOTE: "FAIR" INDICATES FEW OR NO CLOUDS BELOW 12,000 FEET WITH NO
SIGNIFICANT WEATHER AND/OR OBSTRUCTIONS TO VISIBILITY.

* THESE STATIONS ARE NOT UNDER NWS QUALITY CONTROL. THEY ALSO MAY NOT
  REPORT WEATHER SUCH AS PRECIPITATION OR FOG.

ILZ001-002-007-009-015-016-024-250000-
NORTHWEST ILLINOIS

CITY           SKY/WX    TMP DP  RH WIND       PRES   REMARKS
MOLINE         HVY RAIN  50  42  74 E13       29.80F
STERLING*      CLOUDY    48  41  76 E17G25    29.86F
SAVANNA*       LGT RAIN  46  40  79 E16G22    29.84F
$$

ILZ003-004-008-010-011-017-018-250000-
NORTH CENTRAL ILLINOIS

CITY           SKY/WX    TMP DP  RH WIND       PRES   REMARKS
ROCKFORD       LGT RAIN  46  37  71 NE12      29.96R
FREEPORT*      RAIN      44  38  81 E16       29.91F
ROCHELLE*      DRIZZLE   51  32  48 NE12      29.92R
DE KALB*       CLOUDY    50  28  43 NE12      29.91S
PERU*          CLOUDY    61  24  23 SE10G18   29.87R
$$

ILZ005-006-012>014-019>023-250000-
NORTHEAST ILLINOIS

CITY           SKY/WX    TMP DP  RH WIND       PRES   REMARKS
CHICAGO-OHARE  CLOUDY    49  26  41 NE12      29.93S
CHICAGO-MIDWAY CLOUDY    52  21  29 E14       29.93F
AURORA         CLOUDY    56  21  25 NE16      29.89F
LANSING*       CLOUDY    53  19  27 NE9       29.92F
JOLIET*        CLOUDY    62  26  25 SE7       29.89S
WAUKEGAN       CLOUDY    41  34  76 N8        29.97S
DUPAGE AIRPORT CLOUDY    52  23  32 E14       29.91S
KANKAKEE*      CLOUDY    60  28  29 SE8       29.89F
WHEELING       CLOUDY    46  27  47 NE7       29.95S
MORRIS*        CLOUDY    61  24  24 SE12      29.87S
ROMEOVILLE*    CLOUDY    55  21  27 E13G18    29.90S
NORTHERLY ISL    N/A     46  30  54 NE14        N/A
$$

LMZ740>746-250000-
SOUTHERN LAKE MICHIGAN

STATION/POSITION SKY/WX   TEMP    WIND        PRES    VSBY  WAVE
                          AIR SEA DIR/SP/G                  HT/PER
                          (F)     (DEG/KT/KT) (MB)    (MI)  (FT/S)
HARRISON CRIB              44      40/ 19/ 21   N/A
BURNHAM HARBOR             45      30/  9/ 16   N/A
CALUMET HARBOR             46      40/ 10/ 12   N/A
BURNS HARBOR               49      60/ 16/ 20 1013.9F
MICHIGAN CITY              47      30/ 18/ 20   N/A
MICHIGAN CITY 6N           45 44   70/ 14/ 16   N/A           2/ 3
$$

ILZ025>027-034>036-040-047-049-050-058-095>099-250000-
WEST-CENTRAL ILLINOIS

CITY           SKY/WX    TMP DP  RH WIND       PRES   REMARKS
QUINCY         CLOUDY    64  38  38 S13       29.74F
GALESBURG*     CLOUDY    60  33  36 SE10G22   29.79R
MACOMB*        CLOUDY    62  33  34 SE20      29.80F
JACKSONVILLE*  CLOUDY    62  37  40 SE13G20   29.80F
PITTSFIELD*    CLOUDY    64  36  35 SE12      29.77F
$$

ILZ028>032-037-038-041>044-048-051>054-059>061-250000-
CENTRAL ILLINOIS

CITY           SKY/WX    TMP DP  RH WIND       PRES   REMARKS
PONTIAC        CLOUDY    62  26  26 SE17      29.88S
BLOOMINGTON    LGT RAIN  60  32  34 SE16      29.87F
DECATUR        CLOUDY    59  32  36 S14       29.87F
PEORIA         CLOUDY    62  30  29 S14G23    29.82F
LACON*         CLOUDY    60  26  27 SE16G23   29.82F
LINCOLN*       CLOUDY    61  31  33 SE13      29.84F
SPRINGFIELD    CLOUDY    60  33  36 SE17      29.83F
TAYLORVILLE    CLOUDY    59  32  36 SE10      29.85F
$$

ILZ033-039-045-046-055>057-062-063-250000-
EAST-CENTRAL ILLINOIS

CITY           SKY/WX    TMP DP  RH WIND       PRES   REMARKS
CHAMPAIGN      CLOUDY    61  28  28 SE15      29.89F
DANVILLE*      CLOUDY    59  30  32 SE8       29.89F
RANTOUL*       CLOUDY    61  28  29 SE13      29.89F
MATTOON        CLOUDY    58  31  35 S12       29.88F
PARIS*         CLOUDY    58  36  43 SE8       29.91F
$$

ILZ079-100>102-250000-
SOUTHWEST ILLINOIS

CITY           SKY/WX    TMP DP  RH WIND       PRES   REMARKS
BELLEVILLE     CLOUDY    60  40  47 S15G23    29.84S
CAHOKIA*       CLOUDY    60  41  49 S14G28    29.83F
SPARTA*        CLOUDY    57  40  52 S13G18    29.88F
$$

ILZ064>066-069>071-074>076-080>082-084>086-088>090-092>094-250000-
SOUTH-CENTRAL ILLINOIS

CITY           SKY/WX    TMP DP  RH WIND       PRES   REMARKS
CARBONDALE     CLOUDY    57  42  57 S14       29.91R
CAIRO*         CLOUDY    59  44  58 SE8G16    29.88F
EFFINGHAM*     CLOUDY    60  28  29 SE9       29.91F
MARION         LGT RAIN  57  45  62 S8        29.92F
MT. VERNON     CLOUDY    61  34  36 S18       29.89F
CENTRALIA*     CLOUDY    60  32  34 S12       29.88F
SALEM*         CLOUDY    64  30  28 S13       29.88F
METROPOLIS*    CLOUDY    59  44  56 SE8       29.89F
$$

ILZ067-068-072-073-078-083-087-091-250000-
SOUTHEAST ILLINOIS

CITY           SKY/WX    TMP DP  RH WIND       PRES   REMARKS
LAWRENCEVILLE  CLOUDY    62  31  31 S13       29.92F
FLORA*         CLOUDY    61  33  35 S15       29.90F
FAIRFIELD*     CLOUDY    62  33  34 S10       29.90S
HARRISBURG*    CLOUDY    59  38  45 SE8       29.92F
ROBINSON*      CLOUDY    61  31  32 SE6       29.92F
CARMI*         CLOUDY    62  26  25 S13       29.91F
$$

ABBREVIATIONS USED IN REMARKS
   TC - TEMPERATURE IN CELSIUS
  WCI - WIND CHILL INDEX
   HX - HEAT INDEX
  VSB - VISIBILITY
$$




USA.gov is the U.S. government's official web portal to all federal, state and local government web resources and services.